Theta_e
310 312 311 310 310 311 309 310 304 307 307 310 315 318 317 319 318 317 317 317 316 318 318 321 324 326 328 329 329 329 324 324 327 331 330 330 330 330 329 328 326 326 325 325
309 311 311 309 311 312 311 309 310 309 307 313 315 319 315 317 318 317 316 317 318 319 319 322 323 329 327 329 326 324 325 325 328 329 328 330 330 330 330 328 327 327 326 325
304 311 310 305 310 311 311 312 310 306 311 313 312 313 314 317 317 315 317 318 318 319 320 322 325 328 326 324 327 327 327 325 326 328 328 329 329 329 330 329 329 327 325 325
305 309 299 312 318 313 311 311 311 310 310 312 312 314 316 316 317 318 319 319 320 323 325 327 325 326 328 326 326 326 327 326 326 326 326 328 328 327 328 329 328 327 326 326
305 303 308 311 314 312 309 308 314 311 313 314 316 316 316 319 319 317 319 320 322 324 326 325 325 327 327 327 326 323 322 322 324 325 324 325 324 325 326 326 327 326 326 325
306 301 298 311 318 320 317 304 315 316 316 315 315 308 310 316 319 320 322 325 326 324 322 322 323 326 322 318 316 314 314 317 321 322 321 320 322 320 323 323 322 325 325 324
306 304 308 317 318 318 303 308 318 318 317 318 314 315 321 320 321 322 324 325 322 319 316 316 318 320 315 312 310 311 313 314 316 317 316 319 317 317 318 318 318 317 315 317
310 305 301 320 317 310 320 322 320 319 319 319 320 319 320 322 322 323 323 321 319 315 314 313 313 314 310 307 309 309 310 311 312 314 312 312 311 314 315 316 315 314 313 311
312 310 325 323 323 326 325 320 319 319 319 320 319 319 321 320 320 319 318 317 317 315 312 311 309 308 305 305 304 304 305 306 307 308 308 304 306 306 307 310 308 307 305 303
307 316 319 322 323 324 324 321 323 321 325 320 321 322 320 318 318 316 316 314 315 313 311 307 307 305 303 302 302 301 301 302 303 302 300 303 302 302 300 299 300 297 296 295
310 314 317 317 314 322 323 321 321 321 322 323 321 320 318 317 316 315 313 312 311 309 308 306 304 302 300 300 301 299 300 300 300 297 299 299 301 301 299 302 297 296 295 295
309 317 316 313 317 318 318 320 322 322 319 320 320 317 318 316 315 313 310 308 306 305 304 303 301 299 299 299 299 299 297 297 297 295 296 296 297 298 297 295 294 293 293 295
318 321 317 318 320 321 320 322 322 321 320 317 318 318 316 313 307 304 304 303 300 300 299 299 298 298 298 298 298 298 297 297 295 295 295 294 295 295 293 297 295 295 294 293
323 324 320 322 319 322 323 321 319 319 317 315 314 312 308 305 304 303 300 299 299 298 297 297 296 296 297 297 297 298 298 297 295 294 294 294 294 294 295 294 293 294 295 295
324 326 323 324 323 321 320 318 314 313 310 306 306 305 305 301 300 297 297 297 296 296 297 296 295 295 297 297 296 296 295 294 294 294 294 294 294 295 294 294 293 293 295 294
325 324 323 321 318 317 316 315 310 307 306 303 297 298 298 297 296 296 296 296 294 293 294 294 295 297 297 295 295 296 296 294 294 294 293 293 294 293 293 294 293 293 293 294
319 318 319 316 313 312 301 302 303 298 296 295 294 295 296 296 296 296 298 297 296 295 297 298 297 298 298 297 296 295 296 295 292 294 294 294 294 294 294 293 292 293 293 293
309 305 312 311 300 299 296 295 293 294 293 294 294 294 294 296 296 297 297 297 297 298 300 301 299 297 297 298 298 296 294 294 294 292 293 294 294 294 294 293 293 293 293 293
302 298 296 296 296 294 293 292 292 292 293 293 293 294 296 296 297 297 297 295 295 295 297 298 294 295 298 298 294 294 294 293 293 293 293 293 294 294 293 293 293 293 293 293
296 295 294 294 294 293 292 292 292 292 294 294 294 294 294 295 296 295 296 295 297 298 298 297 296 296 297 294 290 292 293 293 292 292 293 293 293 293 293 290 291 292 293 292
291 292 292 292 291 292 293 293 295 295 295 295 294 294 294 295 296 295 295 293 298 298 296 295 295 294 293 290 291 291 291 291 292 293 293 293 293 292 292 292 292 292 292 292
290 290 290 291 292 293 295 296 296 295 294 294 295 295 294 294 295 295 297 295 295 290 293 294 294 288 290 286 292 291 292 292 293 293 293 292 292 292 292 292 292 292 292 293
291 292 292 293 294 294 295 296 295 295 294 294 294 294 294 294 294 292 291 297 295 290 293 294 288 286 285 291 292 292 292 293 293 292 292 292 292 292 291 291 291 292 292 292
294 296 295 296 296 295 294 295 296 296 295 295 296 296 295 293 294 295 296 293 287 290 293 292 290 286 283 292 292 293 292 292 292 291 291 288 292 292 292 291 291 292 292 292
297 296 295 295 294 292 296 297 294 295 295 295 295 296 297 296 293 293 294 294 291 291 293 289 286 285 292 292 292 292 291 291 291 291 291 291 291 291 291 291 292 292 292 293
296 294 294 295 294 294 293 293 292 292 293 293 293 294 294 294 294 294 294 292 293 291 293 293 293 292 292 291 291 291 291 291 291 291 290 291 291 291 291 292 292 292 292 293
296 292 293 293 294 294 293 292 292 292 292 292 291 293 293 293 293 292 291 292 292 292 292 292 291 290 291 290 291 291 291 291 289 290 291 291 291 291 292 292 292 292 292 292
Wind_Speed
14 16 16 16 10 9 9 6 7 8 7 10 12 13 12 11 12 13 13 14 6 13 15 12 7 4 4 4 3 7 7 6 3 4 6 5 5 5 5 6 6 7 7 7
15 18 20 10 2 3 4 3 10 6 4 9 10 9 11 9 11 13 11 7 4 6 15 15 8 5 5 8 7 7 2 4 6 5 5 6 6 7 7 8 7 7 7 7
13 18 16 11 1 2 3 5 8 10 6 6 6 6 4 8 7 11 13 15 15 14 13 9 1 8 6 5 4 5 4 4 4 4 3 4 5 7 6 5 6 7 9 11
11 15 15 5 7 2 5 6 4 3 1 4 3 1 4 5 9 11 9 16 17 12 8 4 6 5 4 2 4 4 2 3 4 6 7 5 5 6 7 6 6 8 10 10
9 10 5 11 7 6 6 6 7 6 5 6 7 8 10 12 9 6 6 6 7 11 11 11 11 9 7 11 13 13 11 10 10 12 12 12 10 10 10 10 9 9 10 11
10 11 11 8 10 9 10 7 9 7 8 8 6 3 4 8 9 11 10 10 14 14 13 11 10 10 11 11 11 11 11 11 10 9 9 10 8 8 6 7 10 10 10 11
12 12 6 9 6 4 7 1 10 10 10 11 5 5 6 8 11 10 11 13 13 13 11 10 8 8 10 10 10 10 10 10 9 9 9 9 8 8 9 8 8 8 9 10
8 11 7 5 5 9 4 7 9 10 8 12 10 10 11 10 9 9 9 8 10 10 9 9 10 9 10 9 9 10 10 10 11 10 9 9 11 9 9 7 5 5 5 5
9 2 4 2 3 5 7 6 6 6 3 7 9 10 12 9 7 7 7 7 7 9 9 9 9 9 8 8 10 10 9 9 10 9 9 10 9 10 9 4 4 6 7 7
9 9 20 13 15 10 9 8 5 6 2 5 12 12 11 9 7 6 6 6 6 7 7 7 7 8 8 9 10 10 10 10 9 8 8 8 7 7 8 8 7 7 7 9
5 7 13 9 15 17 6 6 5 3 6 11 11 10 11 7 6 5 7 6 6 6 5 6 6 7 8 9 9 9 9 9 8 8 9 8 6 6 6 5 1 4 5 5
4 3 4 7 7 22 23 4 6 12 10 8 7 10 8 7 4 4 6 6 6 5 5 6 6 6 7 8 8 8 9 9 7 8 7 8 8 6 9 8 9 10 9 6
2 4 8 9 12 22 16 10 9 7 6 6 6 9 7 8 10 6 7 6 5 5 5 6 5 5 7 8 8 8 8 9 8 8 7 8 9 7 8 7 10 10 8 8
1 2 4 6 8 6 12 12 11 10 9 8 7 10 12 9 5 5 6 8 8 7 6 7 7 6 7 8 8 8 8 13 8 8 8 8 8 8 8 8 7 8 5 11
3 3 4 5 10 11 13 10 9 9 10 11 11 8 6 8 9 9 9 8 7 9 6 7 6 7 6 7 9 8 8 8 9 8 9 8 9 8 8 8 7 8 9 4
2 7 10 10 12 10 11 10 9 10 10 13 13 13 11 9 8 6 4 4 4 4 7 7 7 7 5 4 10 10 8 8 9 8 9 10 8 8 8 7 8 9 8 7
8 8 9 9 9 5 17 13 16 14 12 11 8 6 6 3 3 6 8 3 6 8 10 8 9 9 7 3 9 8 7 8 10 9 10 8 8 8 7 7 8 9 8 7
19 20 14 13 15 15 14 12 11 10 8 5 4 1 3 7 7 6 6 8 8 8 8 7 8 9 8 9 8 8 9 9 9 9 10 10 7 7 8 8 9 8 8 8
20 21 20 19 13 13 11 10 7 5 4 3 5 7 3 5 5 6 6 8 9 9 7 8 6 5 9 9 7 9 9 11 10 9 10 12 8 8 8 8 8 9 9 8
18 17 16 15 13 11 9 6 1 3 7 5 4 5 5 6 6 7 8 9 9 8 2 4 6 9 10 8 6 8 11 11 11 11 10 9 9 8 8 9 9 9 8 8
15 13 12 10 8 3 3 6 9 6 3 4 4 6 7 7 8 9 9 8 8 5 2 4 7 6 7 8 10 12 13 11 11 10 9 8 8 9 9 9 9 8 8 8
8 6 5 2 5 7 8 4 3 5 6 6 7 7 8 10 9 9 9 9 7 5 5 7 9 5 5 5 10 11 11 11 9 9 8 9 8 8 8 9 9 8 9 9
3 3 5 8 4 5 4 4 3 5 6 8 7 7 6 7 8 9 9 7 7 6 8 9 3 4 5 7 11 11 10 11 9 10 9 9 9 9 8 10 9 10 10 7
7 9 2 5 6 6 6 5 6 6 6 7 8 5 7 8 8 8 9 8 11 3 9 9 7 4 5 9 10 10 10 8 10 10 10 10 9 9 10 10 9 10 10 9
5 4 3 7 7 5 5 5 7 7 9 9 8 8 8 8 8 9 9 9 10 9 10 8 2 1 7 9 9 10 10 10 10 10 10 9 9 10 9 9 9 9 9 9
2 2 2 4 6 5 7 7 8 8 7 7 8 8 9 9 9 8 9 10 11 10 10 10 10 10 11 11 11 11 10 10 9 10 10 9 10 10 9 10 10 9 9 8
5 3 6 6 7 7 8 7 8 8 9 9 10 10 10 9 10 10 12 11 11 10 9 10 10 10 11 10 11 11 9 10 10 10 10 9 10 8 9 9 9 9 9 8
Wind_Direction
291 298 304 287 309 359 325 339 293 348 9 355 32 53 86 104 108 105 79 92 39 335 337 320 138 131 193 179 111 67 75 83 126 203 209 215 221 234 245 251 257 266 271 264
295 287 267 308 32 340 312 247 321 145 167 68 49 63 74 96 121 117 107 110 140 276 274 297 291 176 98 71 75 79 115 194 207 209 224 227 227 230 231 235 243 256 260 263
289 296 312 284 61 294 304 351 339 309 61 101 87 70 70 136 137 153 164 172 192 207 257 282 226 72 76 103 127 176 202 231 235 258 268 295 306 299 289 304 287 259 275 271
281 283 278 80 102 107 99 108 92 84 46 151 156 266 250 212 201 207 207 202 218 215 184 134 97 103 125 162 175 218 250 320 344 328 333 305 282 297 313 306 295 288 282 277
288 295 317 125 148 185 205 183 165 146 187 187 199 196 218 224 242 94 97 90 95 94 71 51 32 19 6 26 36 34 21 7 355 23 8 2 11 359 342 332 314 299 291 287
285 278 288 106 175 207 169 227 170 181 191 199 200 270 121 151 125 89 65 59 65 68 68 51 31 34 41 37 31 18 7 353 351 351 350 335 352 352 334 351 347 341 330 318
241 247 233 151 157 176 218 42 173 208 220 216 175 186 107 105 90 78 80 83 82 74 68 53 30 50 51 37 23 2 352 349 348 348 340 327 348 346 334 336 341 342 352 14
248 259 306 163 167 220 96 155 204 211 219 134 156 145 104 89 89 79 72 86 83 80 78 66 43 41 52 35 9 358 350 351 343 337 333 345 340 313 313 292 313 327 354 1
14 8 184 289 260 126 159 201 208 225 187 161 152 120 126 115 109 104 103 96 92 108 97 71 59 49 39 23 6 349 355 350 328 339 348 340 318 322 304 8 332 335 345 346
22 350 351 357 329 305 177 227 188 194 166 204 138 131 120 125 138 138 120 104 96 98 87 70 54 48 35 19 7 350 351 335 328 344 346 320 316 323 353 337 6 357 344 329
225 262 280 346 354 316 304 223 183 82 66 100 101 112 126 132 153 138 120 99 80 65 62 77 55 44 35 20 8 352 346 331 343 343 325 315 326 352 333 331 20 330 321 322
257 359 184 264 243 253 285 146 79 95 88 83 115 123 142 144 134 114 81 66 68 54 41 32 35 30 31 16 3 353 338 338 338 325 324 329 330 326 330 256 223 224 232 237
264 179 187 199 241 241 234 117 139 132 108 107 68 114 106 94 62 41 56 48 48 20 23 21 11 15 32 1 358 347 345 319 320 300 338 327 315 334 315 312 247 246 209 207
184 216 229 164 167 154 96 85 86 98 90 92 81 72 83 93 101 50 50 26 7 5 15 9 356 14 23 350 341 338 328 301 316 347 327 308 330 309 305 320 330 338 219 215
290 152 159 182 120 104 112 118 129 129 96 75 73 72 68 60 71 59 35 30 3 347 1 342 345 344 14 348 330 330 315 334 341 315 303 313 283 294 320 314 344 321 304 301
131 162 133 143 146 151 153 152 129 128 130 79 64 60 47 52 50 31 331 287 270 351 327 289 273 267 305 357 332 314 317 336 292 299 313 287 304 318 315 335 332 300 304 320
136 154 154 131 115 108 87 57 77 88 81 74 64 60 54 31 285 260 256 332 282 254 254 267 274 279 273 316 328 300 312 312 294 298 307 307 310 305 320 319 299 291 309 319
52 50 47 95 105 93 82 79 84 85 78 78 79 107 228 234 254 257 272 264 277 286 287 296 24 23 340 304 296 307 306 286 292 307 308 302 307 317 298 289 286 309 314 311
54 59 61 61 69 88 90 83 73 96 132 198 242 251 270 286 271 285 323 308 301 299 306 35 117 317 322 330 348 293 297 297 304 316 298 295 306 312 314 314 315 312 311 322
63 62 64 68 63 61 71 61 175 213 231 238 305 291 300 326 331 317 304 299 286 278 27 341 338 300 277 108 6 303 305 311 306 295 292 303 303 312 306 306 306 306 308 306
67 65 65 67 71 76 143 219 244 246 297 270 302 323 323 323 317 313 298 294 316 42 354 283 282 334 349 7 327 312 304 297 285 288 297 307 309 313 309 313 310 311 315 328
69 72 81 124 209 201 207 238 336 340 330 328 318 328 334 315 306 310 306 290 310 178 354 319 318 69 334 284 313 301 290 288 300 303 309 313 315 314 311 312 316 313 312 318
91 204 220 237 248 12 335 319 325 315 309 326 325 315 308 314 298 289 304 339 337 49 336 310 337 245 232 290 293 295 303 312 304 307 321 321 318 313 320 312 319 309 303 313
232 231 54 23 6 315 298 340 314 303 300 282 280 322 301 293 313 334 335 339 124 220 318 298 299 270 245 292 299 309 301 312 314 324 325 316 314 308 307 308 309 313 321 309
264 9 338 34 324 344 304 322 317 312 348 330 324 311 338 0 334 327 331 326 321 311 335 315 312 336 283 293 313 323 319 315 324 321 313 320 300 299 300 314 306 302 299 296
347 342 286 332 300 343 347 2 353 330 312 318 329 350 350 332 327 344 327 338 333 332 328 337 342 340 331 328 326 319 318 316 316 319 313 308 305 313 314 304 305 304 301 301
212 287 11 335 2 13 11 327 296 340 337 347 355 336 330 336 338 344 341 343 345 332 333 335 330 333 329 330 319 321 320 315 319 318 311 304 308 305 308 310 307 305 303 299